Regional Weather Roundup
Issued by NWS

Home | Current Version | Previous Version | Text Only | Print | Product List | Glossary Off
Versions: 1 2 3 4 5 6 7 8 9 10 11 12 13 14 15 16 17 18 19 20 21 22 23 24 25 26 27 28 29 30 31 32 33 34 35 36 37 38 39 40 41 42 43 44 45 46 47 48 49 50

000
ASUS43 KFSD 220610
RWRSD

WEATHER ROUNDUP FOR SOUTH DAKOTA
NATIONAL WEATHER SERVICE SIOUX FALLS SD
100 AM CDT MON SEP 22 2014

NOTE: "FAIR" INDICATES FEW OR NO CLOUDS BELOW 12,000 FEET WITH NO
SIGNIFICANT WEATHER AND/OR OBSTRUCTIONS TO VISIBILITY.


SDZ001>005-009-010-012>017-220700-
NORTHWEST AND NORTH CENTRAL SOUTH DAKOTA

CITY           SKY/WX    TMP DP  RH WIND       PRES   REMARKS
BUFFALO          N/A     51  37  58 SE7       30.13F
FAITH            N/A     48  40  73 S14       30.21F
MOBRIDGE       CLEAR     50  47  89 SE6       30.20F
$$

SDZ012>016-024>037-041>051-057-063-072>074-220700-
SOUTHWEST AND SOUTH CENTRAL SOUTH DAKOTA

CITY           SKY/WX    TMP DP  RH WIND       PRES   REMARKS
RAPID CTY ARPT PTCLDY    53  36  52 S5        30.22F
PIERRE         CLEAR     44  39  82 E5        30.22F
CUSTER         MOCLDY    47  34  60 CALM      30.31F
ELLSWORTH AFB  PTCLDY    56  37  50 S8        30.21F
PHILIP         CLEAR     50  39  66 E3        30.23S
PINE RIDGE     PTCLDY    62  36  37 S9        30.24F
WINNER         FAIR      46  40  79 S6        30.26F
$$

SDZ004>011-016>023-039-040-220700-
NORTHEAST SOUTH DAKOTA

CITY           SKY/WX    TMP DP  RH WIND       PRES   REMARKS
ABERDEEN       CLEAR     42  40  92 SW6       30.23S
WATERTOWN      CLEAR     47  44  90 S5        30.25S
SISSETON         N/A     46  45  96 S5        30.22S
$$

SDZ017-020-022-023-036>040-048>070-220700-
SOUTHEAST SOUTH DAKOTA

CITY           SKY/WX    TMP DP  RH WIND       PRES   REMARKS
SIOUX FALLS    CLEAR     47  45  93 CALM      30.26F
HURON          CLEAR     44  41  89 CALM      30.25R
CHAMBERLAIN    CLEAR     49  43  80 SE3       30.26F
MITCHELL       CLEAR     53  46  77 SW6       30.27R
YANKTON        CLEAR     48  45  87 SW7       30.27S
$$

ABBREVIATIONS USED IN REMARKS
   TC - TEMPERATURE IN CELSIUS
  WCI - WIND CHILL INDEX
   HX - HEAT INDEX
  VSB - VISIBILITY



USA.gov is the U.S. government's official web portal to all federal, state and local government web resources and services.